Kindakun Rocks, British Columbia

5:43 PM PDT on August 19, 2017 (GMT -0700)
Kindakun Rocks

Weather History for CWQS - January, 2013

Change the Weather History Date:

Thursday, January 24, 2013

  Actual Average (CYZP) Record (CYZP)
Temperature  
Mean Temperature 43 °F -  
Max Temperature 46 °F 40 °F 55 °F (2015)
Min Temperature 40 °F 34 °F 26 °F (1997)
Degree Days  
Heating Degree Days 22    
Moisture  
Dew Point 38 °F    
Average Humidity 78    
Maximum Humidity 91    
Minimum Humidity 60    
Precipitation  
Precipitation 0.16 in - - ()
Sea Level Pressure  
Sea Level Pressure 29.48 in    
Wind  
Wind Speed 21 mph ()    
Max Wind Speed 41 mph    
Max Gust Speed 53 mph    
Averages and records for this station are not official NWS values.
T = Trace of Precipitation, MM = Missing Value Source: Averaged Metar Reports

Daily Weather History Graph

Daily Weather History Graph

Search for Another Location

Airport or City:

Trip Planner

Search our weather history database for the weather conditions in past years. The results will help you decide how hot, cold, wet, or windy it might be!

Date:

Astronomy

Jan. 24, 2013 Rise Set
Actual Time 8:47 AM PST 5:20 PM PST
Civil Twilight 8:07 AM PST 5:59 PM PST
Nautical Twilight 7:25 AM PST 6:42 PM PST
Astronomical Twilight 6:44 AM PST 7:23 PM PST
Moon 3:24 PM PST (1/24) 6:55 AM PST (1/24)
Length of Visible Light 9h 51m
Length of Day
8h 33m
Waxing Gibbous, 95% of the Moon is Illuminated
Jan 24
Waxing Gibbous
Jan 26
Full
Feb 3
Last Quarter
Feb 9
New
Feb 17
First Quarter

Hourly Weather History & Observations

Time (PST) Temp. Windchill Dew Point Humidity Pressure Visibility Wind Dir Wind Speed Gust Speed Precip Events Conditions
12:00 AM 42.1 °F 32.1 °F 38.1 °F 86% 29.78 in - South 25.3 mph - 0.04 in   Unknown
1:00 AM 43 °F - 38 °F 78% 29.78 in - South 19.6 mph - -  
1:00 AM 42.6 °F 34.0 °F 38.5 °F 85% 29.78 in - South 19.6 mph 26.5 mph 0.02 in   Unknown
2:00 AM 43.0 °F 33.5 °F 38.3 °F 84% 29.77 in - South 24.2 mph 29.9 mph 0.01 in   Unknown
3:00 AM 42.6 °F 33.3 °F 37.9 °F 83% 29.76 in - South 23.0 mph 31.1 mph N/A   Unknown
4:00 AM 42 °F - 37 °F 76% 29.74 in - South 23.0 mph - -  
4:00 AM 42.4 °F 33.1 °F 37.0 °F 81% 29.74 in - South 23.0 mph 34.5 mph 0.03 in   Unknown
5:00 AM 43.2 °F 35.0 °F 38.1 °F 82% 29.72 in - SSE 18.4 mph - 0.02 in   Unknown
6:00 AM 42.4 °F 35.0 °F 35.4 °F 76% 29.70 in - SSE 15.0 mph 21.9 mph 0.01 in   Unknown
7:00 AM 43 °F - 34 °F 61% 29.65 in - SSE 21.9 mph - -  
7:00 AM 43.3 °F 34.5 °F 34.0 °F 70% 29.65 in - SSE 21.9 mph 28.8 mph 0.01 in   Unknown
8:00 AM 43.7 °F 35.7 °F 34.3 °F 70% 29.62 in - SSE 18.4 mph 24.2 mph N/A   Unknown
9:00 AM 43.2 °F 37.0 °F 34.9 °F 73% 29.57 in - SSE 11.5 mph 19.6 mph N/A   Unknown
10:00 AM 45 °F - 36 °F 60% 29.53 in - SSE 15.0 mph - -  
10:00 AM 44.8 °F 38.0 °F 35.6 °F 70% 29.53 in - SSE 15.0 mph 24.2 mph N/A   Unknown
11:00 AM 45.5 °F 38.6 °F 36.7 °F 71% 29.48 in - SSE 16.1 mph 27.6 mph N/A   Unknown
12:00 PM 45.7 °F 38.0 °F 36.5 °F 70% 29.43 in - SSE 19.6 mph 29.9 mph N/A   Unknown
1:00 PM 45 °F - 36 °F 62% 29.36 in - SE 16.1 mph - -  
1:00 PM 45.0 °F 37.9 °F 36.3 °F 72% 29.36 in - SE 16.1 mph 21.9 mph N/A   Unknown
2:00 PM 43.9 °F 35.9 °F 37.0 °F 77% 29.29 in - SE 18.4 mph 27.6 mph 0.02 in   Unknown
3:00 PM 44.1 °F 35.9 °F 36.5 °F 75% 29.23 in - SE 19.6 mph 33.4 mph 0.02 in   Unknown
4:00 PM 45 °F - 37 °F 64% 29.19 in - SSE 26.5 mph - -  
4:00 PM 45.1 °F 36.0 °F 36.7 °F 72% 29.19 in - SSE 26.5 mph 42.6 mph N/A   Unknown
5:00 PM 43.0 °F 32.9 °F 38.7 °F 85% 29.18 in - SSE 27.6 mph 34.5 mph 0.03 in   Unknown
6:00 PM 44.1 °F 32.4 °F 41.0 °F 89% 29.19 in - South 41.4 mph 52.9 mph 0.05 in   Unknown
7:00 PM 44 °F - 42 °F 89% 29.21 in - South 35.7 mph - -  
7:00 PM 44.2 °F 33.4 °F 41.9 °F 91% 29.21 in - South 35.7 mph 48.3 mph 0.05 in   Unknown
8:00 PM 44.6 °F 33.3 °F 41.2 °F 88% 29.26 in - SSW 40.3 mph 50.6 mph 0.02 in   Unknown
9:00 PM 44.6 °F 33.5 °F 41.5 °F 89% 29.30 in - SSW 39.1 mph 49.5 mph N/A   Unknown
10:00 PM 45 °F - 42 °F 83% 29.35 in - SSW 40.3 mph - -  
10:00 PM 45.1 °F 34.1 °F 41.5 °F 87% 29.35 in - SSW 40.3 mph 49.5 mph N/A   Unknown
11:00 PM 45.1 °F 34.1 °F 41.0 °F 85% 29.40 in - SSW 40.3 mph 50.6 mph 0.01 in   Unknown